Location: UBC Liquid-Mirror Observatory
(49.2876°N, 122.5728°W)
Time: 00:21:22
(UTC-07:00)

Daily predictions for brighter satellites

Satellite Brightness Start Highest point End
(mag) Time Altitude Azimuth Time Altitude Azimuth Time Altitude Azimuth
BREEZE-M DEB (TANK) 2.3 00:00:13 10° W 00:02:49 79° S 00:09:59 10° ESE
Cosmos 2084 Rocket 3.4 00:00:43 10° NW 00:04:32 54° SW 00:04:46 53° SW
Cosmos 2263 4.4 00:04:21 41° SSE 00:05:46 51° ESE 00:11:15 10° NE
Cosmos 1315 Rocket 2.6 00:06:41 67° S 00:07:10 83° E 00:11:07 10° NNE
Lacrosse 5 rocket 1.1 00:08:39 27° WSW 00:10:36 77° NNW 00:14:18 10° NE
deb Kosmos-1763 4.1 00:06:50 10° NNW 00:10:45 76° WSW 00:11:04 69° SSW
Cosmos 1892 Rocket 3.8 00:08:13 10° NNW 00:12:33 62° W 00:13:32 47° SSW
USA 234 3.2 00:06:55 10° ENE 00:13:25 62° SE 00:18:24 18° SW
H-2A R/B 4.0 00:13:08 13° SW 00:16:15 21° W 00:20:14 10° NW
Cosmos 1633 3.2 00:18:21 44° WSW 00:18:59 50° WNW 00:22:38 10° N
Okean 2 3.6 00:15:13 10° NNW 00:19:22 62° W 00:20:02 53° SW
Cosmos 1346 Rocket 2.7 00:17:05 10° N 00:20:59 70° ENE 00:21:15 67° ESE
Cosmos 1992 Rocket 4.0 00:22:28 49° SSE 00:23:40 64° ESE 00:28:50 10° NNE
Cosmos 1833 4.1 00:18:48 10° NNW 00:24:28 87° ENE 00:26:22 44° SSE
Cosmos 1818 3.8 00:24:58 46° SSE 00:25:49 50° ESE 00:31:07 10° NE
Cosmos 1025 Rocket 4.4 00:24:10 10° NNW 00:27:59 29° W 00:29:15 25° WSW
Cosmos 44 Rocket 3.4 00:23:39 10° NW 00:28:50 79° NE 00:30:23 45° SE
Cosmos 375 4.3 00:27:11 10° NW 00:31:18 63° SW 00:31:18 63° SW
Cosmos 1602 Rocket 3.5 00:27:29 10° N 00:31:59 80° E 00:32:41 62° SSE
Cosmos 2100 Rocket 4.4 00:29:52 37° SE 00:32:02 51° E 00:38:10 10° NNE
Meteor 1-12 Rocket 4.4 00:30:45 43° SSE 00:32:16 58° E 00:37:49 10° NNE
Lacrosse 5 1.9 00:28:58 10° WSW 00:34:05 78° NNW 00:39:13 10° NE
Cosmos 1626 Rocket 3.5 00:31:17 10° N 00:35:48 87° E 00:36:29 64° SSE
CZ-2C R/B 3.6 00:31:52 10° NNE 00:36:29 30° E 00:37:25 28° ESE
Cosmos 2369 Rocket 2.3 00:34:53 30° SW 00:37:45 73° WNW 00:43:23 10° NNE
Cosmos 1400 Rocket 4.5 00:36:27 22° WSW 00:38:11 30° WNW 00:41:52 10° N
Cosmos 1536 4.3 00:40:24 24° WSW 00:41:41 30° WNW 00:45:14 10° N
Cosmos 1459 Rocket 4.2 00:40:22 40° SE 00:42:16 56° E 00:48:11 10° NNE
CZ-4C R/B 3.3 00:42:35 62° W 00:42:35 62° W 00:46:15 10° NNW
Cosmos 1455 Rocket 3.2 00:41:46 53° SW 00:42:34 65° W 00:46:55 10° N
Cosmos 1241 Rocket 4.5 00:36:17 10° NW 00:42:45 80° WSW 00:45:15 41° SSE
Gblst 52 Del rocket 4.5 00:40:21 10° WSW 00:47:42 77° SSE 00:54:03 10° ENE
Cosmos 2227 Rocket 3.9 00:44:02 10° NNW 00:48:55 28° NE 00:53:47 10° ESE
Helios 1A Rocket 3.8 00:45:17 10° NNE 00:49:08 37° E 00:49:08 37° E
Cosmos 2219 3.2 00:43:56 10° NNW 00:49:36 74° ENE 00:51:36 41° SE
Cosmos 1605 Rocket 4.4 00:47:54 31° SW 00:51:00 60° WNW 00:57:22 10° N
ALOS 2 2.7 00:50:31 55° SW 00:51:02 60° W 00:55:24 10° NNW
Cosmos 1656 Rocket 4.4 00:51:24 34° SE 00:52:10 36° ESE 00:57:15 10° NE
Cosmos 1066 Rocket 4.2 00:47:17 10° N 00:52:40 71° ENE 00:54:12 47° SE
Cosmos 2061 Rocket 4.1 00:51:59 42° SSE 00:54:13 67° E 01:00:34 10° NNE
Cosmos 44 3.6 00:50:00 10° NW 00:55:17 66° NE 00:57:11 37° ESE
SeaSat 1 4.3 00:54:51 10° E 00:58:56 27° NE 01:03:03 10° NNW
Cosmos 1975 2.7 01:00:42 81° SW 01:00:53 86° WNW 01:04:59 10° N
Cosmos 1802 Rocket 4.1 00:59:07 43° SSE 01:01:10 66° E 01:07:27 10° NNE
CZ-4B R/B 2.4 01:04:37 37° WNW 01:04:37 37° WNW 01:06:58 10° NNW
Cosmos 1943 Rocket 2.1 01:03:42 48° SSW 01:05:20 84° ESE 01:10:59 10° NNE
Cosmos 2173 Rocket 4.0 01:03:34 44° S 01:05:46 80° E 01:12:10 10° NNE
Cosmos 1500 3.2 01:08:34 70° ENE 01:08:34 70° ENE 01:12:13 10° NNE
Landsat 5 3.7 01:08:58 55° WSW 01:09:13 57° WSW 01:13:21 10° NNW
Cosmos 2297 Rocket 3.9 01:04:58 10° NNW 01:09:52 29° NE 01:14:46 10° ESE
Cosmos 1515 4.1 01:11:50 10° NNW 01:15:30 52° W 01:15:30 52° W
Cosmos 1606 Rocket 4.0 01:18:16 44° ESE 01:18:36 45° E 01:22:45 10° NNE
H-2A R/B 2.9 01:15:03 10° N 01:19:32 60° WNW 01:20:28 49° WSW
Cosmos 1689 Rocket 3.9 01:20:28 27° WNW 01:20:28 27° WNW 01:22:33 10° NNW
Cosmos 968 Rocket 3.8 01:16:53 10° NNW 01:21:57 51° WSW 01:22:45 46° SW
Uosat 12 SS-18 rocket 4.3 01:19:13 10° NW 01:23:45 78° NE 01:25:24 43° SE
Cosmos 1725 Rocket 4.2 01:23:22 39° SSE 01:25:26 58° E 01:31:30 10° NNE
ISS -1.1 01:23:23 10° WNW 01:24:29 19° WNW 01:24:29 19° WNW
NOSS 3-3 (A) 4.2 01:32:39 43° S 01:34:26 58° ESE 01:41:06 10° NE
NOSS 3-3 (C) 4.2 01:32:45 43° S 01:34:32 58° ESE 01:41:11 10° NE
ATLAS CENTAUR R/B 4.0 01:34:29 13° ESE 01:34:40 13° ESE 01:36:56 10° E
GP-B 3.7 01:33:47 10° N 01:38:03 45° W 01:38:42 42° WSW
Tsikada Rocket 4.0 01:32:11 10° N 01:38:33 87° E 01:40:58 41° SSE
Cosmos 1570 Rocket 4.4 01:37:44 43° SE 01:38:51 51° ESE 01:44:00 10° NNE
Cosmos 1953 Rocket 3.4 01:39:36 10° NNW 01:43:56 75° W 01:44:20 68° SW
Cosmos 2058 Rocket 3.4 01:43:37 50° SE 01:44:13 55° E 01:48:36 10° NNE
Lacrosse 5 rocket 3.1 01:46:59 10° WNW 01:50:14 27° NNW 01:53:27 10° NE
ATLAS 2AS CENTAUR R/B 3.7 01:44:00 10° NW 01:51:06 35° WSW 01:53:00 31° SW
Cosmos 1825 Rocket 4.0 01:48:36 10° NNW 01:52:53 46° W 01:53:16 44° WSW
Cosmos 1726 Rocket 3.3 01:53:18 69° S 01:53:48 88° E 01:58:10 10° N
CZ-2C R/B 3.0 01:53:12 51° SW 01:54:04 59° W 01:58:50 10° NNW
USA 234 3.7 01:50:01 10° ENE 01:56:28 62° NNW 02:02:53 10° W
Aureole 2 4.5 02:02:03 77° NNW 02:02:03 77° NNW 02:05:45 10° NNE
Cosmos 1340 2.8 02:03:08 10° NNW 02:06:48 61° W 02:06:48 61° W
Cosmos 1758 Rocket 3.9 02:03:05 10° NNW 02:07:28 51° W 02:07:57 49° WSW
Cosmos 1743 3.6 02:13:51 36° W 02:14:11 37° WNW 02:17:50 10° N
CZ-2C R/B 3.3 02:11:58 10° N 02:16:55 44° WNW 02:18:57 31° WSW
Lacrosse 5 3.3 02:12:53 10° WNW 02:17:38 37° N 02:22:23 10° ENE
Cosmos 220 Rocket 4.0 02:14:42 10° NNW 02:19:04 76° ENE 02:20:21 45° SE
Meteor 2-17 Rocket 4.4 02:19:03 39° S 02:21:32 86° E 02:27:40 10° N
Cosmos 1697 Rocket 4.5 02:19:13 16° SE 02:21:45 21° E 02:25:54 10° NE
Cosmos 2369 Rocket 4.4 02:18:52 10° W 02:22:47 19° NW 02:26:42 10° N
Cosmos 2082 3.6 02:19:17 10° NNW 02:24:56 78° WSW 02:27:24 35° SSE
Cosmos 2208 Rocket 4.0 02:25:46 42° SW 02:27:31 74° WNW 02:32:50 10° NNE
Cosmos 2233 Rocket 3.9 02:25:24 38° SSW 02:27:54 82° W 02:34:06 10° N
Cosmos 1980 Rocket 4.4 02:28:13 10° SE 02:31:25 16° E 02:34:39 10° ENE
Meteor 2-9 Rocket 4.3 02:29:49 39° SSW 02:32:04 74° WNW 02:37:51 10° N
Cosmos 2228 3.0 02:32:14 53° SW 02:33:05 69° W 02:37:23 10° N
Cosmos 2227 Rocket 2.2 02:27:48 10° NNW 02:33:27 65° WSW 02:35:39 37° S
Cosmos 2298 Rocket 3.9 02:28:24 10° NNW 02:33:44 78° WSW 02:35:54 37° S
Cosmos 1656 Rocket 4.4 02:32:46 25° WSW 02:35:40 45° NW 02:41:04 10° NNE
Cosmos 1666 3.2 02:35:46 43° W 02:36:08 44° WNW 02:39:47 10° N
SeaSat 1 2.4 02:34:34 41° S 02:36:09 65° WSW 02:41:05 10° NW
Cosmos 1842 4.3 02:32:57 10° NNW 02:36:29 31° W 02:36:31 31° W
Cosmos 990 Rocket 4.4 02:33:52 10° NNW 02:39:05 61° ENE 02:43:25 15° SE
Cosmos 858 Rocket 4.4 02:39:11 10° NNW 02:44:26 78° WSW 02:46:53 32° SSE
NOSS 2-1 (D) 3.9 02:45:51 41° SSE 02:46:39 47° ESE 02:51:05 10° NE
NPP 4.1 02:42:07 10° NNE 02:47:26 54° E 02:50:08 28° SSE
NOSS 2-1 (C) 3.9 02:47:15 41° SSE 02:48:04 47° ESE 02:52:31 10° NE
Cosmos 468 Rocket 4.3 02:46:04 34° S 02:48:08 57° ESE 02:53:11 10° NNE
USA 161 4.0 02:47:55 13° ESE 02:49:30 18° ENE 02:51:30 10° NNE
Cosmos 1943 Rocket 4.0 02:45:24 10° W 02:49:48 23° NW 02:54:15 10° N
Cosmos 2297 Rocket 2.2 02:48:45 10° NW 02:54:20 62° WSW 02:57:06 30° S
Cosmos 2278 3.7 02:56:15 34° SSW 02:58:50 86° WNW 03:04:34 10° NNE
Cosmos 405 Rocket 2.8 02:56:24 10° NNW 03:00:27 67° W 03:01:28 46° SSW
Cosmos 2369 3.6 02:58:43 34° SSW 03:01:21 88° ESE 03:07:04 10° NNE
Meteor 2-5 Rocket 3.8 02:56:54 10° NNW 03:02:46 72° W 03:06:03 28° S
Landsat 4 3.7 03:02:01 48° SSW 03:02:50 62° WSW 03:06:40 10° NNW
NOSS 2-1 (E) 3.7 03:01:56 41° S 03:03:09 60° SE 03:07:53 10° NE
SL-08 R/B 3.2 03:03:13 32° S 03:05:21 76° WSW 03:10:00 10° NNW
ERS-2 3.4 03:03:28 10° NNE 03:06:56 35° E 03:08:37 23° SSE
Cosmos 1408 Rocket 4.5 03:03:13 10° N 03:07:29 46° ENE 03:11:11 13° SSE
Cosmos 2150 Rocket 4.4 03:05:49 10° NW 03:10:46 44° WSW 03:12:34 32° SSW
Cosmos 1898 Rocket 4.0 03:07:27 10° NW 03:12:30 43° WSW 03:14:25 31° SSW
ATLAS CENTAUR R/B 1.9 03:10:48 34° SSW 03:13:01 73° SE 03:17:59 10° NE
Cosmos 1766 Rocket 4.4 03:08:48 10° N 03:13:06 49° ENE 03:16:59 12° SSE
NOSS 3-4 (A) 3.9 03:08:05 10° NW 03:14:49 55° WSW 03:21:56 10° SSE
NOSS 3-4 (C) 3.9 03:08:11 10° NW 03:14:57 56° WSW 03:22:06 10° SSE
Cosmos 1891 Rocket 4.4 03:11:45 26° S 03:15:25 87° E 03:21:37 10° N
Cosmos 1812 Rocket 3.9 03:15:17 34° SW 03:16:57 55° WNW 03:21:21 10° N
Cosmos 841 Rocket 4.2 03:14:44 21° SSE 03:17:55 46° ESE 03:22:57 10° NNE
Cosmos 1125 Rocket 4.1 03:13:35 10° NNW 03:18:45 57° ENE 03:23:51 10° SE
Cosmos 1766 4.0 03:17:23 23° SSE 03:19:31 47° E 03:23:19 10° NNE
Cosmos 1937 Rocket 3.7 03:15:29 10° NNW 03:20:28 49° WSW 03:22:56 27° SSW
Cosmos 1763 Rocket 3.9 03:18:52 23° S 03:21:55 55° ESE 03:26:58 10° NNE
Cosmos 2263 Rocket 4.4 03:18:49 10° NNW 03:23:31 26° NE 03:28:10 10° E
Cosmos 1461 3.2 03:24:22 10° NW 03:28:35 66° NE 03:32:35 10° SE
Cosmos 1656 3.7 03:26:45 26° SSW 03:30:05 85° ESE 03:35:46 10° NNE
Lacrosse 5 rocket 3.3 03:27:06 10° NW 03:30:17 26° N 03:33:26 10° ENE
Nadezhda 4 Rocket 3.9 03:25:14 10° N 03:31:27 82° W 03:36:47 15° S
Cosmos 2034 Rocket 4.0 03:28:10 24° SSW 03:32:09 76° W 03:38:22 10° N
Cosmos 1441 Rocket 3.3 03:28:22 10° N 03:32:23 85° E 03:35:13 19° SSE
IRS-1C 4.1 03:27:46 10° NNE 03:33:09 88° ESE 03:36:38 23° SSW
CZ-2D R/B 3.2 03:28:43 10° NNE 03:33:52 40° E 03:38:55 10° SSE
Meteor 1-24 Rocket 3.8 03:30:37 10° NNW 03:36:17 66° W 03:40:46 18° S
BREEZE-M DEB (TANK) 4.3 03:35:13 18° S 03:37:17 24° SE 03:40:38 10° E
USA 234 4.3 03:32:46 10° ENE 03:38:56 46° N 03:45:06 10° WNW
BREEZE-M DEB (TANK) 4.4 03:32:26 10° WNW 03:39:11 21° WSW 03:39:42 21° WSW
ARIANE 5 R/B 3.0 03:35:46 10° NNE 03:40:50 57° E 03:45:08 15° S
SL-24 R/B 4.2 03:37:30 12° SSE 03:41:50 87° WSW 03:46:15 10° NNW
Cosmos 1707 3.8 03:38:31 10° NNW 03:42:00 30° W 03:43:05 26° WSW
IRAS Rocket 4.3 03:36:28 10° NNE 03:42:07 79° WNW 03:46:00 21° SSW
Meteor 1-22 Rocket 4.4 03:40:19 20° SSW 03:44:47 86° WNW 03:50:56 10° NNE
Cosmos 1805 4.3 03:43:42 13° SSE 03:46:58 42° E 03:50:42 10° NNE
EO 1 Del DPAF 3.7 03:43:31 10° SSE 03:47:21 63° ENE 03:51:13 10° N
Cosmos 2227 4.2 03:42:05 10° NNW 03:47:53 83° WSW 03:53:39 10° SSE
SL-16 R/B 2.5 03:45:35 10° SSE 03:51:46 83° WSW 03:57:59 10° NNW
GEOS 3 Rocket 3.6 03:49:05 10° SE 03:54:18 89° SW 03:59:31 10° NW
In-Cosmos 22 4.0 03:49:11 10° NNW 03:54:31 90° N 03:59:49 10° S
Cosmos 1758 3.8 03:53:04 14° S 03:56:23 59° E 04:00:20 10° NNE
ADEOS 3.6 03:52:45 10° N 03:57:58 71° WNW 04:01:52 18° SSW
Cosmos 1953 2.6 03:56:01 15° S 03:59:22 66° E 04:03:26 10° NNE
Lacrosse 5 3.4 03:56:46 10° WNW 04:01:34 39° NNE 04:06:20 10° E
Meteor 2-12 Rocket 4.5 03:57:11 17° SSW 04:01:50 67° WNW 04:07:55 10° N
Cosmos 2026 Rocket 4.2 03:55:44 10° N 04:02:07 75° E 04:08:22 10° SSE
Cosmos 1076 Rocket 3.9 03:59:11 10° NNW 04:03:20 46° W 04:06:17 17° SSW
Spot 4 Rocket 4.1 03:58:50 10° N 04:04:00 70° WNW 04:08:03 17° SSW
Cosmos 1697 Rocket 2.8 04:00:57 19° SW 04:05:08 72° WNW 04:10:50 10° NNE
Resurs 1-4 Rocket 2.3 04:00:36 10° NNE 04:05:54 72° ESE 04:11:01 11° S
Cosmos 1674 3.8 04:02:37 10° N 04:06:17 45° ENE 04:09:54 10° SSE
BREEZE-M DEB (TANK) 2.7 04:03:37 15° WSW 04:07:30 61° SSE 04:09:54 10° E
IRS-1D 3.4 04:08:21 10° NNE 04:13:21 84° WNW 04:17:55 13° SSW
Cosmos 2195 Rocket 4.4 04:07:25 10° N 04:13:35 83° W 04:19:41 10° S
SeaSat 1 4.5 04:14:21 10° WSW 04:14:33 10° W 04:14:50 10° W
Cosmos 1980 Rocket 2.2 04:09:54 15° SSW 04:14:34 88° ESE 04:20:18 10° NNE
NOSS 7 (H) 4.3 04:12:38 20° SW 04:14:43 88° ESE 04:18:20 10° NE
EP 1 4.2 04:13:50 24° SW 04:15:10 84° NW 04:18:03 10° NE
Cosmos 2227 Rocket 4.1 04:15:16 10° W 04:16:22 11° W 04:17:25 10° WSW
Cosmos 1634 Rocket 4.0 04:10:07 10° S 04:16:23 87° W 04:22:45 10° N
Cosmos 1500 Rocket 3.6 04:15:10 10° N 04:19:36 86° ENE 04:23:58 10° S
USA 161 2.9 04:19:04 19° WSW 04:19:46 21° W 04:21:57 10° NW
BREEZE-M DEB (TANK) 2.9 04:19:49 10° W 04:23:23 88° N 04:27:57 10° E
Cosmos 1092 Rocket 4.4 04:17:32 10° NNW 04:23:31 48° W 04:29:32 10° SSW
Meteor 1-21 Rocket 4.4 04:17:56 10° NNW 04:23:50 67° W 04:29:41 10° S
Cosmos 332 Rocket 4.2 04:20:18 10° S 04:25:02 62° ESE 04:29:51 10° NNE
Cosmos 1743 Rocket 3.6 04:21:13 10° NNW 04:25:30 59° W 04:29:48 10° S
Cosmos 2322 Rocket 2.9 04:22:31 10° S 04:27:53 49° ESE 04:33:18 10° NE
Gblst 52 Del rocket 4.3 04:25:28 10° WNW 04:31:52 86° SSW 04:37:34 10° ESE
Cosmos 1437 3.4 04:29:11 10° NNW 04:32:19 38° W 04:35:26 10° SSW
Cosmos 2058 4.4 04:31:07 10° N 04:35:09 40° ENE 04:39:09 10° SE
RESURS DK-1 2.7 04:31:58 10° NW 04:35:54 43° WSW 04:39:49 10° S
Cosmos-2242 3.4 04:33:41 12° SSW 04:37:35 49° WNW 04:41:46 10° N
Cosmos 372 Rocket 4.1 04:33:32 10° NNW 04:38:31 54° WSW 04:43:27 10° S
UNK 4.5 04:34:30 10° SSW 04:38:47 35° W 04:43:04 10° NNW
Cosmos 2221 4.2 04:35:04 10° SSE 04:38:53 32° E 04:42:45 10° NNE
MOS 1-B 4.4 04:34:17 10° NNE 04:40:08 82° WNW 04:45:56 10° SSW
ERS-2 3.8 04:37:37 10° NNW 04:40:34 22° WNW 04:43:27 10° WSW
MTI 4.2 04:38:20 10° S 04:41:29 44° W 04:44:41 10° NNW
Okean O Rocket 2.1 04:39:05 10° NNE 04:43:28 63° ESE 04:47:50 10° S
Cosmos 371 Rocket 3.7 04:38:55 10° S 04:43:40 63° ESE 04:48:26 10° NNE
Cosmos 2084 3.6 04:41:09 10° NW 04:45:11 74° NE 04:49:25 10° SE
Cosmos 1428 Rocket 4.5 04:39:31 10° N 04:45:42 82° W 04:51:48 10° S
Cosmos 1470 2.9 04:41:48 10° S 04:45:45 81° E 04:49:46 10° NNE
Aureole 1 Rocket 4.4 04:45:08 10° SSW 04:51:32 85° ESE 04:59:40 10° NNE
ATLAS CENTAUR R/B 3.3 04:48:15 10° W 04:52:36 29° NW 04:56:52 10° NNE
CZ-2C R/B 3.7 04:48:40 10° S 04:53:18 67° WSW 04:57:53 10° NNW
PSLV R/B 3.8 04:49:56 10° NNE 04:53:49 80° E 04:57:35 10° S
USA 81 4.2 04:48:43 10° SSW 04:53:57 64° W 04:59:13 10° N
Cosmos 1346 4.2 04:54:07 10° N 04:57:05 47° ENE 05:00:02 10° SSE
SL-16 R/B 2.3 04:57:11 10° SSW 05:02:51 82° ESE 05:08:33 10° NNE
CZ-2D R/B 3.8 05:01:26 10° N 05:05:42 55° WNW 05:10:02 10° SSW
Cosmos 2263 Rocket 2.2 05:02:24 10° NNW 05:07:58 70° WSW 05:13:30 10° SSE
Cosmos 2279 Rocket 4.1 05:01:50 10° SSW 05:08:01 63° WNW 05:14:15 10° N
